GSAT0202 (GALILEO 6) (40129 NORAD) Tracking and Keplerian Element Data

This shows tracking and keplerian element data for the satellite.

Feedback or suggestion? Click here.




ElementValue
Catalog40129
NameGSAT0202 (GALILEO 6)
Epoch Orbit7713
Epoch Day352.57387135
Epoch Year2025
RAAN279.9095
Inclination49.0858
Eccentricity0.1649125
Argument of Perigee173.2442
Mean Anonmoly189.3393
Mean Motion1.85520466
Decay Rate-5.9E-07
L11 40129U 14050B 25352.57387135 -.00000059 00000+0 00000+0 0 9995
L22 40129 49.0858 279.9095 1649125 173.2442 189.3393 1.85520466 77135



Live tracking and technical data element details for GSAT0202 (GALILEO 6) (NORAD 40129). GSAT0202 (GALILEO 6) can be tracked NOW for your location showing map with azimuth and elevation plus other details from your city location.







IsCatalogInMostPopularTable: catalog: 40129, numindb: 759
Update: records affected: 1



GetName: 40129 GSAT0202 (GALILEO 6)

Hit Count: updated at: Sat, 07 Mar 2026 03:37:50 GMT